OK2BOZ-1 Weather Reports


time (UTC)temp
C
wind
direction
speed
KPH
gust
KPH
rain 1hr
cm
rain 24hr
cm
rain mn
cm
humidity
%
barometer
mb
20260507084021 21 294 0.0 1.6 0.00 0.00 0.00 55 1010.4
20260507083506 21 276 0.0 1.6 0.00 0.00 0.00 56 1010.4
20260507082951 21 288 0.0 1.6 0.00 0.00 0.00 55 1010.4
20260507082437 21 255 0.0 1.6 0.00 0.00 0.00 56 1010.3
20260507081921 20 280 0.0 1.6 0.00 0.00 0.00 56 1010.4
20260507081406 20 273 0.0 1.6 0.00 0.00 0.00 57 1010.4
20260507080851 20 282 1.6 1.6 0.00 0.00 0.00 58 1010.3
20260507080335 20 256 0.0 1.6 0.00 0.00 0.00 59 1010.2
20260507075820 20 230 1.6 3.2 0.00 0.00 0.00 58 1010.2
20260507075307 20 226 1.6 3.2 0.00 0.00 0.00 57 1010.2
20260507074751 20 197 1.6 3.2 0.00 0.00 0.00 58 1010.1
20260507074237 20 264 1.6 1.6 0.00 0.00 0.00 58 1010.2
20260507073721 20 185 1.6 3.2 0.00 0.00 0.00 57 1010.1
20260507073206 20 250 1.6 3.2 0.00 0.00 0.00 58 1010.1
20260507072651 20 249 1.6 3.2 0.00 0.00 0.00 56 1010.0
20260507071620 21 254 0.0 1.6 0.00 0.00 0.00 56 1009.9
20260507071105 21 228 1.6 3.2 0.00 0.00 0.00 57 1009.9
20260507070550 21 297 1.6 1.6 0.00 0.00 0.00 56 1009.9
20260507070034 21 272 1.6 1.6 0.00 0.00 0.00 56 1009.8
20260507065519 21 198 1.6 3.2 0.00 0.00 0.00 59 1009.7
20260507065004 20 284 1.6 3.2 0.00 0.00 0.00 63 1009.7
20260507064450 20 235 1.6 1.6 0.00 0.00 0.00 63 1009.7
20260507063936 18 231 1.6 4.8 0.00 0.00 0.00 66 1009.7
20260507063420 18 253 1.6 1.6 0.00 0.00 0.00 67 1009.7
20260507062905 18 249 0.0 1.6 0.00 0.00 0.00 67 1009.5
20260507062350 18 218 0.0 1.6 0.00 0.00 0.00 69 1009.6
20260507061837 18 282 0.0 1.6 0.00 0.00 0.00 71 1009.5
20260507061321 18 254 0.0 1.6 0.00 0.00 0.00 73 1009.3
20260507060806 17 276 0.0 1.6 0.00 0.00 0.00 77 1009.2
20260507060252 17 243 0.0 1.6 0.00 0.00 0.00 78 1009.2
20260507055736 17 229 0.0 1.6 0.00 0.00 0.00 80 1009.1
20260507055222 17 207 1.6 3.2 0.00 0.00 0.00 80 1009.1
20260507054707 17 247 0.0 1.6 0.00 0.00 0.00 82 1009.1
20260507054153 16 271 0.0 1.6 0.00 0.00 0.00 90 1009.0
20260507053638 16 277 0.0 0.0 0.00 0.00 0.00 94 1008.9
20260507053124 15 270 0.0 0.0 0.00 0.00 0.00 10 1008.9